When you browse on this site, cookies collect data to enhance your experience and personalize the content and advertising you see.
Visit our Privacy Policy to learn more. By continuing to use the site, you agree to this use of cookies and data.
  • en Suisse
  • Liste des pays
  • À 7 jours
  • Température de l'eau
  • Carte météo
  • Widgets météo
  • user-avatar
    Se connecter

    Météo par heure à Carcassonne

    Ce jour, 21 Février, Vendredi

    Heure Température Précipitation Vent Pression Humidité
    00:00 +7°C° 0 mm 4 m/s 760 mmHg 82%
    01:00 +7°C° 0 mm 4 m/s 760 mmHg 84%
    02:00 +7°C° 0 mm 3 m/s 760 mmHg 86%
    03:00 +7°C° 0 mm 3 m/s 759 mmHg 88%
    04:00 +7°C° 0 mm 3 m/s 760 mmHg 88%
    05:00 +5°C° 0 mm 3 m/s 760 mmHg 89%
    06:00 +5°C° 0 mm 3 m/s 760 mmHg 89%
    13:00 +13°C° 0 mm 5 m/s 760 mmHg 68%
    14:00 +14°C° 0 mm 5 m/s 759 mmHg 67%
    15:00 +14°C° 0 mm 5 m/s 759 mmHg 67%
    16:00 +13°C° 0 mm 5 m/s 759 mmHg 73%
    17:00 +11°C° 0 mm 4 m/s 759 mmHg 80%
    18:00 +10°C° 0 mm 3 m/s 760 mmHg 86%
    19:00 +9°C° 0 mm 3 m/s 760 mmHg 88%
    20:00 +9°C° 0 mm 2 m/s 760 mmHg 89%
    21:00 +8°C° 0 mm 2 m/s 760 mmHg 90%
    22:00 +8°C° 0 mm 2 m/s 760 mmHg 90%
    23:00 +8°C° 0 mm 2 m/s 761 mmHg 90%

    Demain, 22 Février, Samedi

    Heure Température Précipitation Vent Pression Humidité
    00:00 +7°C° 0 mm 2 m/s 761 mmHg 90%
    01:00 +7°C° 0 mm 2 m/s 761 mmHg 90%
    02:00 +7°C° 0 mm 2 m/s 761 mmHg 89%
    03:00 +6°C° 0 mm 2 m/s 760 mmHg 88%
    04:00 +6°C° 0 mm 2 m/s 760 mmHg 86%
    05:00 +7°C° 0 mm 1 m/s 761 mmHg 84%
    06:00 +7°C° 0 mm 1 m/s 761 mmHg 82%
    07:00 +8°C° 0 mm 1 m/s 761 mmHg 76%
    08:00 +9°C° 0 mm 2 m/s 762 mmHg 70%
    09:00 +12°C° 0 mm 2 m/s 762 mmHg 64%
    10:00 +13°C° 0 mm 2 m/s 762 mmHg 57%
    11:00 +15°C° 0 mm 2 m/s 762 mmHg 51%
    12:00 +16°C° 0 mm 2 m/s 762 mmHg 45%
    13:00 +17°C° 0 mm 2 m/s 762 mmHg 44%
    14:00 +17°C° 0 mm 2 m/s 762 mmHg 44%
    15:00 +17°C° 0 mm 3 m/s 762 mmHg 43%
    16:00 +15°C° 0 mm 2 m/s 762 mmHg 51%
    17:00 +13°C° 0 mm 2 m/s 762 mmHg 59%
    18:00 +10°C° 0 mm 2 m/s 763 mmHg 67%
    19:00 +10°C° 0 mm 2 m/s 763 mmHg 69%
    20:00 +9°C° 0 mm 2 m/s 763 mmHg 72%
    21:00 +8°C° 0 mm 2 m/s 764 mmHg 74%
    22:00 +8°C° 0 mm 2 m/s 764 mmHg 74%
    23:00 +8°C° 0 mm 2 m/s 764 mmHg 75%

    Après-demain, 23 Février, Dimanche

    Heure Température Précipitation Vent Pression Humidité
    00:00 +8°C° 0 mm 2 m/s 764 mmHg 75%
    01:00 +8°C° 0 mm 2 m/s 763 mmHg 75%
    02:00 +7°C° 0 mm 2 m/s 763 mmHg 76%
    03:00 +7°C° 0 mm 2 m/s 763 mmHg 76%
    04:00 +7°C° 0 mm 2 m/s 762 mmHg 76%
    05:00 +7°C° 0 mm 2 m/s 762 mmHg 75%
    06:00 +7°C° 0 mm 2 m/s 762 mmHg 74%
    07:00 +8°C° 0 mm 2 m/s 762 mmHg 69%
    08:00 +10°C° 0 mm 2 m/s 762 mmHg 63%
    09:00 +13°C° 0 mm 2 m/s 762 mmHg 57%
    10:00 +14°C° 0 mm 3 m/s 762 mmHg 51%
    11:00 +16°C° 0 mm 3 m/s 762 mmHg 46%
    12:00 +18°C° 0 mm 3 m/s 761 mmHg 40%
    13:00 +19°C° 0 mm 3 m/s 761 mmHg 40%
    14:00 +19°C° 0 mm 3 m/s 760 mmHg 41%
    15:00 +19°C° 0 mm 3 m/s 760 mmHg 41%
    16:00 +17°C° 0 mm 3 m/s 760 mmHg 49%
    17:00 +15°C° 0 mm 2 m/s 760 mmHg 56%
    18:00 +13°C° 0 mm 2 m/s 760 mmHg 64%
    19:00 +12°C° 0 mm 2 m/s 761 mmHg 65%
    20:00 +12°C° 0 mm 2 m/s 761 mmHg 66%
    21:00 +10°C° 0 mm 2 m/s 761 mmHg 68%
    22:00 +10°C° 0 mm 2 m/s 761 mmHg 68%
    23:00 +9°C° 0 mm 2 m/s 761 mmHg 67%

    24 Février, Lundi

    Heure Température Précipitation Vent Pression Humidité
    00:00 +9°C° 0 mm 2 m/s 761 mmHg 67%
    01:00 +9°C° 0 mm 2 m/s 760 mmHg 66%
    02:00 +9°C° 0 mm 2 m/s 760 mmHg 66%
    03:00 +8°C° 0 mm 2 m/s 760 mmHg 65%
    04:00 +8°C° 0 mm 2 m/s 759 mmHg 62%
    05:00 +8°C° 0 mm 2 m/s 759 mmHg 60%
    06:00 +8°C° 0 mm 2 m/s 759 mmHg 57%
    07:00 +10°C° 0 mm 2 m/s 758 mmHg 54%
    08:00 +13°C° 0 mm 2 m/s 758 mmHg 51%
    09:00 +15°C° 0 mm 2 m/s 758 mmHg 48%
    10:00 +17°C° 0 mm 2 m/s 757 mmHg 44%
    11:00 +18°C° 0 mm 2 m/s 757 mmHg 40%
    12:00 +20°C° 0 mm 2 m/s 756 mmHg 35%
    13:00 +21°C° 0 mm 2 m/s 756 mmHg 36%
    14:00 +21°C° 0 mm 2 m/s 755 mmHg 37%
    15:00 +21°C° 0 mm 2 m/s 754 mmHg 38%
    16:00 +19°C° 0 mm 2 m/s 754 mmHg 47%
    17:00 +17°C° 0 mm 2 m/s 754 mmHg 56%
    18:00 +14°C° 0 mm 2 m/s 754 mmHg 65%
    19:00 +14°C° 0 mm 2 m/s 754 mmHg 67%
    20:00 +13°C° 0 mm 2 m/s 755 mmHg 68%
    21:00 +12°C° 0 mm 2 m/s 755 mmHg 70%
    22:00 +12°C° 0 mm 2 m/s 755 mmHg 69%
    23:00 +10°C° 0 mm 3 m/s 755 mmHg 69%

    25 Février, Mardi

    Heure Température Précipitation Vent Pression Humidité
    00:00 +10°C° 0 mm 3 m/s 755 mmHg 69%
    01:00 +9°C° 0 mm 3 m/s 755 mmHg 72%
    02:00 +8°C° 0 mm 3 m/s 754 mmHg 74%
    03:00 +8°C° 0 mm 3 m/s 754 mmHg 77%
    04:00 +7°C° 0 mm 3 m/s 754 mmHg 80%
    05:00 +7°C° 0 mm 3 m/s 754 mmHg 84%
    06:00 +7°C° 0 mm 3 m/s 754 mmHg 87%
    07:00 +7°C° 0 mm 4 m/s 754 mmHg 82%
    08:00 +8°C° 0 mm 4 m/s 754 mmHg 78%
    09:00 +9°C° 0 mm 5 m/s 754 mmHg 73%
    10:00 +12°C° 0 mm 5 m/s 754 mmHg 66%
    11:00 +13°C° 0 mm 6 m/s 754 mmHg 59%
    12:00 +15°C° 0 mm 7 m/s 754 mmHg 52%
    13:00 +15°C° 0 mm 7 m/s 753 mmHg 54%
    14:00 +15°C° 0 mm 8 m/s 753 mmHg 55%
    15:00 +15°C° 0 mm 9 m/s 753 mmHg 57%
    16:00 +13°C° 0 mm 8 m/s 753 mmHg 63%
    17:00 +12°C° 0 mm 8 m/s 753 mmHg 70%
    18:00 +11°C° 0 mm 8 m/s 753 mmHg 76%
    19:00 +10°C° 0.4 mm 8 m/s 754 mmHg 78%
    20:00 +10°C° 0.4 mm 8 m/s 755 mmHg 80%
    21:00 +10°C° 0.4 mm 8 m/s 755 mmHg 83%
    22:00 +8°C° 0.1 mm 9 m/s 755 mmHg 82%
    23:00 +7°C° 0.1 mm 9 m/s 756 mmHg 80%

    26 Février, Mercredi

    Heure Température Précipitation Vent Pression Humidité
    00:00 +7°C° 0.1 mm 10 m/s 756 mmHg 79%
    01:00 +6°C° 0 mm 9 m/s 756 mmHg 80%
    02:00 +6°C° 0 mm 7 m/s 756 mmHg 80%
    03:00 +5°C° 0 mm 6 m/s 755 mmHg 80%
    04:00 +5°C° 0 mm 6 m/s 755 mmHg 81%
    05:00 +6°C° 0 mm 5 m/s 755 mmHg 81%
    06:00 +5°C° 0 mm 4 m/s 755 mmHg 82%
    07:00 +6°C° 0 mm 5 m/s 755 mmHg 77%
    08:00 +7°C° 0 mm 5 m/s 755 mmHg 72%
    09:00 +8°C° 0 mm 6 m/s 755 mmHg 67%
    10:00 +9°C° 0 mm 6 m/s 755 mmHg 64%
    11:00 +10°C° 0 mm 7 m/s 754 mmHg 60%
    12:00 +11°C° 0 mm 7 m/s 754 mmHg 57%
    13:00 +11°C° 0 mm 7 m/s 753 mmHg 58%
    14:00 +11°C° 0 mm 7 m/s 753 mmHg 59%
    15:00 +11°C° 0 mm 8 m/s 752 mmHg 60%
    16:00 +11°C° 0.1 mm 8 m/s 753 mmHg 64%
    17:00 +10°C° 0.1 mm 7 m/s 753 mmHg 69%
    18:00 +9°C° 0.1 mm 7 m/s 753 mmHg 74%
    19:00 +7°C° 0 mm 8 m/s 753 mmHg 75%
    20:00 +7°C° 0 mm 9 m/s 753 mmHg 77%
    21:00 +7°C° 0 mm 9 m/s 754 mmHg 78%
    22:00 +7°C° 0.1 mm 9 m/s 754 mmHg 79%
    23:00 +7°C° 0.1 mm 9 m/s 754 mmHg 79%
    Voir plus